Hourly Weather Bolshoy Gok

Today, 4 August, Wednesday

Time Temperature Precipitation Wind Pressure Humidity
00:00 +30°C° 0 mm 4 mps 750 mmHg 36%
01:00 +29°C° 0 mm 4 mps 750 mmHg 42%
02:00 +28°C° 0 mm 4 mps 750 mmHg 47%
03:00 +27°C° 0 mm 4 mps 750 mmHg 53%
04:00 +27°C° 0 mm 3 mps 751 mmHg 57%
05:00 +26°C° 0 mm 3 mps 751 mmHg 60%
06:00 +26°C° 0 mm 3 mps 752 mmHg 63%
07:00 +28°C° 0 mm 3 mps 752 mmHg 56%
08:00 +30°C° 0 mm 4 mps 752 mmHg 48%
09:00 +34°C° 0 mm 4 mps 752 mmHg 41%
10:00 +35°C° 0 mm 4 mps 752 mmHg 36%
11:00 +37°C° 0 mm 4 mps 752 mmHg 32%
12:00 +38°C° 0 mm 4 mps 752 mmHg 28%
13:00 +40°C° 0 mm 4 mps 752 mmHg 26%
14:00 +40°C° 0 mm 4 mps 751 mmHg 24%
15:00 +40°C° 0 mm 4 mps 751 mmHg 23%
16:00 +40°C° 0 mm 5 mps 751 mmHg 24%
17:00 +39°C° 0 mm 5 mps 751 mmHg 25%
18:00 +38°C° 0 mm 6 mps 751 mmHg 25%
19:00 +35°C° 0.1 mm 5 mps 751 mmHg 33%
20:00 +32°C° 0.1 mm 4 mps 752 mmHg 40%
21:00 +28°C° 0.1 mm 3 mps 752 mmHg 48%
22:00 +27°C° 0.1 mm 3 mps 752 mmHg 51%
23:00 +26°C° 0.1 mm 2 mps 753 mmHg 55%

Tomorrow, 5 August, Thursday

Time Temperature Precipitation Wind Pressure Humidity
00:00 +25°C° 0.1 mm 1 mps 753 mmHg 58%
01:00 +25°C° 0.1 mm 1 mps 753 mmHg 59%
02:00 +24°C° 0.1 mm 2 mps 753 mmHg 60%
03:00 +24°C° 0.1 mm 2 mps 753 mmHg 61%
04:00 +24°C° 0.1 mm 1 mps 753 mmHg 62%
05:00 +24°C° 0.1 mm 1 mps 753 mmHg 62%
06:00 +24°C° 0.1 mm 1 mps 753 mmHg 63%
07:00 +26°C° 0 mm 1 mps 753 mmHg 57%
08:00 +28°C° 0 mm 1 mps 754 mmHg 50%
09:00 +30°C° 0 mm 2 mps 754 mmHg 44%
10:00 +32°C° 0 mm 2 mps 753 mmHg 39%
11:00 +34°C° 0 mm 3 mps 753 mmHg 35%
12:00 +36°C° 0 mm 3 mps 753 mmHg 30%
13:00 +37°C° 0 mm 4 mps 752 mmHg 29%
14:00 +37°C° 0 mm 4 mps 752 mmHg 28%
15:00 +38°C° 0 mm 4 mps 752 mmHg 27%
16:00 +37°C° 0 mm 4 mps 751 mmHg 27%
17:00 +37°C° 0 mm 5 mps 751 mmHg 28%
18:00 +36°C° 0 mm 5 mps 751 mmHg 28%
19:00 +34°C° 0 mm 5 mps 751 mmHg 31%
20:00 +33°C° 0 mm 4 mps 751 mmHg 34%
21:00 +30°C° 0 mm 4 mps 751 mmHg 37%
22:00 +30°C° 0 mm 4 mps 751 mmHg 35%
23:00 +29°C° 0 mm 5 mps 751 mmHg 32%

Day after tomorrow, 6 August, Friday

Time Temperature Precipitation Wind Pressure Humidity
00:00 +29°C° 0 mm 5 mps 751 mmHg 30%
01:00 +28°C° 0 mm 5 mps 751 mmHg 30%
02:00 +27°C° 0 mm 4 mps 750 mmHg 31%
03:00 +27°C° 0 mm 4 mps 750 mmHg 31%
04:00 +26°C° 0 mm 4 mps 750 mmHg 33%
05:00 +26°C° 0 mm 4 mps 751 mmHg 34%
06:00 +26°C° 0 mm 4 mps 751 mmHg 36%
07:00 +29°C° 0 mm 5 mps 750 mmHg 32%
08:00 +32°C° 0 mm 6 mps 750 mmHg 29%
09:00 +35°C° 0 mm 7 mps 750 mmHg 25%
10:00 +38°C° 0 mm 7 mps 750 mmHg 23%
11:00 +39°C° 0 mm 8 mps 749 mmHg 22%
12:00 +41°C° 0 mm 8 mps 749 mmHg 20%
13:00 +43°C° 0 mm 8 mps 748 mmHg 19%
14:00 +43°C° 0 mm 8 mps 748 mmHg 19%
15:00 +44°C° 0 mm 8 mps 747 mmHg 18%
16:00 +43°C° 0 mm 7 mps 747 mmHg 19%
17:00 +43°C° 0 mm 7 mps 746 mmHg 20%
18:00 +42°C° 0 mm 6 mps 746 mmHg 21%
19:00 +40°C° 0 mm 7 mps 746 mmHg 23%
20:00 +39°C° 0 mm 7 mps 746 mmHg 25%
21:00 +36°C° 0 mm 7 mps 746 mmHg 27%
22:00 +35°C° 0 mm 6 mps 746 mmHg 28%
23:00 +34°C° 0 mm 6 mps 746 mmHg 29%

7 August, Saturday

Time Temperature Precipitation Wind Pressure Humidity
00:00 +33°C° 0 mm 6 mps 747 mmHg 30%
01:00 +32°C° 0 mm 6 mps 747 mmHg 34%
02:00 +30°C° 0 mm 6 mps 747 mmHg 37%
03:00 +28°C° 0 mm 6 mps 747 mmHg 41%
04:00 +28°C° 0 mm 6 mps 747 mmHg 42%
05:00 +28°C° 0 mm 6 mps 747 mmHg 44%
06:00 +28°C° 0 mm 5 mps 747 mmHg 46%
07:00 +29°C° 0 mm 5 mps 747 mmHg 42%
08:00 +32°C° 0 mm 5 mps 747 mmHg 39%
09:00 +33°C° 0 mm 5 mps 747 mmHg 35%
10:00 +35°C° 0 mm 5 mps 746 mmHg 30%
11:00 +37°C° 0 mm 4 mps 746 mmHg 25%
12:00 +41°C° 0 mm 4 mps 746 mmHg 21%
13:00 +42°C° 0 mm 3 mps 745 mmHg 20%
14:00 +41°C° 0 mm 2 mps 745 mmHg 19%
15:00 +42°C° 0 mm 2 mps 745 mmHg 18%
16:00 +42°C° 0.1 mm 3 mps 745 mmHg 21%
17:00 +40°C° 0.1 mm 4 mps 745 mmHg 24%
18:00 +39°C° 0.1 mm 6 mps 745 mmHg 28%
19:00 +35°C° 0.4 mm 4 mps 745 mmHg 35%
20:00 +33°C° 0.4 mm 3 mps 746 mmHg 42%
21:00 +29°C° 0.4 mm 2 mps 746 mmHg 49%
22:00 +29°C° 0 mm 2 mps 747 mmHg 52%
23:00 +28°C° 0 mm 3 mps 747 mmHg 55%

8 August, Sunday

Time Temperature Precipitation Wind Pressure Humidity
00:00 +27°C° 0 mm 3 mps 747 mmHg 58%
01:00 +27°C° 0 mm 3 mps 747 mmHg 59%
02:00 +27°C° 0 mm 3 mps 747 mmHg 60%
03:00 +27°C° 0 mm 2 mps 748 mmHg 61%
04:00 +27°C° 0 mm 2 mps 748 mmHg 60%
05:00 +27°C° 0 mm 2 mps 748 mmHg 59%
06:00 +27°C° 0 mm 1 mps 749 mmHg 58%
07:00 +29°C° 0 mm 1 mps 749 mmHg 51%
08:00 +31°C° 0 mm 2 mps 749 mmHg 45%
09:00 +34°C° 0 mm 2 mps 749 mmHg 38%
10:00 +36°C° 0 mm 3 mps 749 mmHg 34%
11:00 +37°C° 0 mm 3 mps 749 mmHg 30%
12:00 +40°C° 0 mm 4 mps 749 mmHg 26%
13:00 +40°C° 0 mm 5 mps 749 mmHg 27%
14:00 +40°C° 0 mm 7 mps 749 mmHg 27%
15:00 +40°C° 0 mm 8 mps 749 mmHg 28%
16:00 +37°C° 0.3 mm 8 mps 749 mmHg 38%
17:00 +33°C° 0.3 mm 8 mps 750 mmHg 47%
18:00 +29°C° 0.3 mm 8 mps 751 mmHg 56%
19:00 +28°C° 0.8 mm 7 mps 751 mmHg 63%
20:00 +26°C° 0.8 mm 6 mps 752 mmHg 70%
21:00 +25°C° 0.8 mm 5 mps 752 mmHg 77%
22:00 +25°C° 0.3 mm 5 mps 752 mmHg 77%
23:00 +23°C° 0.3 mm 4 mps 752 mmHg 78%

9 August, Monday

Time Temperature Precipitation Wind Pressure Humidity
00:00 +24°C° 0.3 mm 3 mps 752 mmHg 78%
01:00 +24°C° 0 mm 3 mps 752 mmHg 79%
02:00 +24°C° 0 mm 3 mps 752 mmHg 79%
03:00 +22°C° 0 mm 3 mps 752 mmHg 80%
04:00 +22°C° 0 mm 3 mps 752 mmHg 80%
05:00 +22°C° 0 mm 3 mps 752 mmHg 79%
06:00 +22°C° 0 mm 3 mps 752 mmHg 79%
07:00 +25°C° 0 mm 4 mps 752 mmHg 72%
08:00 +27°C° 0 mm 4 mps 752 mmHg 66%
09:00 +29°C° 0 mm 4 mps 752 mmHg 60%
10:00 +30°C° 0 mm 4 mps 752 mmHg 55%
11:00 +32°C° 0 mm 4 mps 752 mmHg 50%
12:00 +33°C° 0 mm 5 mps 752 mmHg 45%
13:00 +35°C° 0 mm 5 mps 752 mmHg 40%
14:00 +36°C° 0 mm 5 mps 752 mmHg 34%
15:00 +39°C° 0 mm 5 mps 751 mmHg 29%
16:00 +37°C° 0 mm 5 mps 751 mmHg 29%
17:00 +37°C° 0 mm 5 mps 751 mmHg 28%
18:00 +36°C° 0 mm 5 mps 751 mmHg 28%
19:00 +35°C° 0 mm 4 mps 751 mmHg 32%
20:00 +33°C° 0 mm 4 mps 751 mmHg 36%
21:00 +30°C° 0 mm 3 mps 752 mmHg 40%
22:00 +29°C° 0 mm 3 mps 752 mmHg 40%
23:00 +28°C° 0 mm 3 mps 752 mmHg 40%
Show more

We Need Your Consent

Meteoprog and our Service Providers may store and access personal data such as cookies, device identifiers or other similar technologies on your device and process such data to personalise content and ads, as well as provide social media features and to analyse the traffic.

  • Store and/or access information on your device

    Cookies, device identifiers or other information can be stored or accessed on your device for the purposes indicated above.

  • Personalised ads and content, ad and content measurement, audience insights, and products development

    Ads and content can be personalised based on a profile. More data can be added to better personalise ads and content. Ad and content performance can be measured. Insights about the audience who saw the ads and content can be derived. Such data can be used to develop or improve user’s experience, systems and software.

By clicking ‘I Agree’ you will allow the use of indicated cookies, device identifiers, web beacons or other similar technologies. Your settings can be changed in the browser on your device.

For certain purposes, legitimate interests may be relied on, rather than consent. You can read more about this in our Privacy and Cookie Policy.